Theta_e
315 313 314 315 319 321 320 313 306 305 308 312 312 312 312 314 315 317 320 326 328 327 325 325 325 323 322 321 320 319 319 319 318 318 317 317 316 316 316 316 316 316 316
315 314 313 314 315 317 314 311 307 302 310 312 312 312 310 311 311 312 314 322 327 327 324 324 323 322 322 321 320 319 318 316 315 315 315 314 314 314 314 314 314 314 314
316 314 313 312 314 314 312 309 305 303 308 312 310 310 309 307 306 307 311 313 318 322 323 321 320 320 320 320 318 316 314 314 313 313 313 313 313 313 313 313 313 313 314
318 315 313 312 312 312 310 306 303 303 307 309 308 308 305 305 304 305 307 306 307 307 316 319 317 318 319 318 317 314 312 311 311 311 312 312 311 311 312 312 312 312 312
317 315 314 312 309 308 306 304 302 307 308 308 307 306 304 303 303 305 303 303 304 302 303 314 317 317 316 315 314 312 311 310 310 310 310 310 310 310 311 311 312 311 311
316 315 313 310 306 305 303 303 302 304 308 308 307 302 302 302 302 301 301 301 299 299 299 300 301 306 312 311 310 309 309 309 309 309 309 309 310 310 310 311 311 310 310
315 314 311 308 306 304 302 303 302 305 302 305 300 299 300 297 297 296 296 296 297 297 296 296 296 296 300 307 305 306 306 307 308 308 308 309 309 309 310 310 310 309 309
313 312 311 309 306 303 302 303 304 303 302 306 302 297 295 297 297 296 294 295 294 296 295 295 295 294 294 295 298 302 303 305 306 308 308 308 308 309 309 310 309 308 308
313 313 311 310 308 306 303 303 305 304 304 300 304 298 293 292 293 295 293 293 293 294 293 293 294 293 293 293 295 296 300 302 305 306 307 308 308 308 309 308 307 308 307
312 311 311 309 308 307 305 305 307 306 306 300 297 298 298 297 293 290 293 292 293 293 292 292 292 292 292 292 296 298 299 300 303 304 306 307 307 307 307 306 307 306 306
311 311 310 309 308 307 306 306 306 306 307 303 298 295 295 295 295 292 289 288 291 292 292 292 292 290 290 291 291 295 298 299 301 303 305 306 306 305 305 306 305 305 304
310 310 310 309 309 307 306 305 305 305 302 302 298 297 296 295 294 293 290 288 289 290 291 291 290 289 289 289 294 296 296 297 299 301 303 304 304 303 303 303 304 304 303
308 309 309 309 308 307 306 305 305 303 302 300 298 296 296 294 294 294 292 289 289 289 288 289 288 289 290 288 291 293 294 296 297 299 301 301 300 300 300 301 302 302 302
308 310 309 308 308 306 305 305 304 303 301 298 295 294 293 293 293 294 293 290 287 286 286 286 287 287 288 290 292 292 288 294 294 296 297 298 297 298 298 299 299 300 300
309 308 308 306 305 305 304 303 301 297 297 294 293 292 291 290 291 291 292 291 289 284 283 285 285 287 288 288 290 286 285 292 293 294 295 295 296 296 296 297 297 297 298
308 306 305 303 302 301 300 299 296 295 293 291 292 290 289 289 289 289 289 288 287 287 283 285 285 286 286 288 289 285 286 289 290 292 293 294 294 295 295 295 296 296 296
307 305 303 301 299 297 296 295 294 293 291 290 290 289 288 289 288 288 288 287 286 286 284 285 286 285 284 284 284 284 284 283 283 289 293 293 294 293 293 294 294 294 295
303 300 299 297 295 295 294 293 291 291 289 289 288 288 288 289 287 288 287 287 286 286 283 283 284 283 282 283 282 281 284 285 282 287 291 291 291 292 292 292 292 292 292
298 297 296 294 293 292 291 291 290 289 289 289 288 288 287 287 287 287 287 286 286 286 285 283 282 282 282 282 281 281 281 280 283 286 288 289 289 289 290 291 291 290 290
296 295 293 292 291 291 290 290 289 289 288 288 287 287 287 287 287 287 286 285 285 283 282 282 282 281 281 281 280 279 279 280 280 283 284 286 287 287 288 289 288 288 289
294 293 292 291 291 290 290 289 289 288 287 287 287 288 287 289 290 289 286 284 283 282 282 281 280 280 280 279 278 279 278 279 279 280 280 279 280 280 280 284 284 287 289
292 292 291 291 291 292 294 293 290 288 288 287 287 289 290 291 291 291 290 288 285 282 280 279 279 279 279 279 278 278 278 278 275 279 279 278 279 278 280 280 286 288 289
292 291 292 292 292 293 295 294 292 288 287 287 286 286 287 288 288 288 290 289 289 289 285 281 279 278 278 278 278 279 278 278 277 279 278 276 278 278 280 281 285 288 288
292 292 292 292 293 294 295 293 291 287 286 285 285 286 285 285 285 285 283 281 280 281 282 283 281 280 280 280 280 279 277 277 278 279 278 274 277 277 279 280 285 287 287
292 292 293 293 292 292 293 292 288 285 284 284 285 286 286 286 288 288 282 281 280 280 286 287 287 286 286 286 283 279 277 275 274 276 279 275 276 276 278 277 280 285 285
291 291 291 291 293 291 292 290 287 284 283 283 285 286 289 286 288 287 280 280 278 279 279 279 279 280 280 281 283 279 278 271 275 270 276 276 276 276 273 277 278 279 279
Wind_Speed
7 5 4 4 3 3 5 5 5 4 5 6 5 8 6 6 6 3 3 14 15 15 13 14 14 13 13 13 12 12 11 11 11 11 12 11 11 11 11 11 12 12 13
6 5 4 4 4 4 4 6 5 4 4 6 6 5 6 6 6 6 3 7 12 12 13 13 13 12 12 12 12 12 12 11 10 10 10 10 10 10 11 11 11 12 12
8 6 5 4 4 4 6 5 4 4 5 4 7 6 6 6 6 6 6 6 5 11 10 11 11 12 12 12 12 11 10 10 10 9 9 10 10 10 10 11 11 12 13
11 7 5 4 4 4 5 5 4 4 5 6 4 4 5 6 6 6 8 6 5 5 7 10 10 10 12 11 11 10 9 9 9 9 9 10 10 10 11 11 12 12 13
13 8 6 4 5 4 4 6 3 7 6 5 6 5 4 5 5 6 8 7 7 6 4 10 11 12 12 11 10 9 8 8 8 8 8 9 9 10 10 11 11 13 14
11 9 9 5 6 4 4 5 6 4 6 7 7 6 4 4 4 4 6 5 5 6 5 5 5 5 11 10 9 9 9 8 8 8 8 9 10 11 11 11 12 12 13
8 11 4 5 7 6 5 5 4 11 3 7 6 4 5 5 5 4 4 4 5 5 5 4 3 3 4 10 9 9 9 9 8 8 9 10 11 11 12 13 14 13 14
13 11 10 7 10 7 9 6 8 4 3 7 5 4 2 2 2 2 2 4 5 4 4 4 5 5 4 3 5 8 9 9 8 9 10 10 10 12 13 14 14 14 15
12 13 13 10 9 9 7 7 8 6 8 1 10 6 3 4 3 1 2 2 4 3 4 5 5 4 4 4 5 5 9 10 10 10 11 12 12 13 14 14 14 14 15
10 10 10 10 10 7 10 9 9 7 11 8 1 3 3 6 4 2 1 1 3 4 5 4 4 4 4 3 4 6 9 10 9 10 11 11 12 12 14 15 15 15 16
10 12 13 9 9 7 8 9 9 7 9 7 4 3 3 3 3 4 4 1 2 2 1 3 4 4 4 3 2 4 8 10 11 11 11 12 12 13 13 16 17 15 16
8 11 11 11 9 8 12 10 7 7 5 4 3 3 4 3 3 3 3 2 4 1 2 3 3 3 2 2 2 7 9 10 11 11 12 13 13 12 13 15 15 15 16
6 8 12 12 9 9 10 8 9 9 7 7 5 3 3 2 3 3 3 3 4 2 2 2 2 3 2 2 3 5 8 10 10 11 12 12 12 12 13 13 15 16 16
10 10 10 10 11 10 9 10 8 7 8 7 8 5 4 3 2 2 4 6 3 2 2 3 1 2 2 1 1 6 4 9 10 11 12 12 12 12 12 14 16 16 17
7 10 11 9 8 7 8 8 6 6 7 5 6 6 4 2 2 2 3 3 5 4 3 2 2 0 1 2 2 3 4 9 11 12 13 12 11 12 12 16 16 16 18
7 9 10 10 9 8 8 9 7 7 9 5 5 8 6 4 4 3 3 4 3 4 4 2 2 2 2 2 4 4 5 7 11 14 12 12 11 10 15 16 16 18 18
8 10 10 10 10 10 7 8 8 11 11 9 7 10 8 5 4 3 5 4 5 2 4 2 2 1 2 2 3 4 4 4 5 12 11 8 12 15 16 15 16 18 19
9 11 11 11 10 9 9 11 10 8 11 11 10 11 9 6 7 5 5 6 5 4 4 4 2 2 3 2 1 2 4 4 4 8 7 12 16 16 15 14 16 18 19
11 11 11 12 12 11 10 8 12 11 11 11 10 10 8 9 7 5 5 6 5 5 4 4 3 2 1 1 2 3 4 3 5 8 9 16 16 15 13 15 18 20 18
12 12 13 12 12 12 12 11 11 13 11 10 10 8 7 8 7 6 7 6 5 4 4 4 3 2 2 2 1 2 4 3 4 3 6 12 14 14 14 18 19 18 18
12 12 16 14 12 13 10 13 12 13 12 11 10 9 8 9 13 9 5 4 5 4 3 3 3 2 1 1 2 3 2 5 3 2 4 4 4 5 6 12 13 17 17
14 14 14 15 13 9 21 21 16 12 12 12 10 9 9 11 10 13 13 12 7 4 3 3 2 1 1 1 1 2 2 6 4 2 7 7 2 5 7 6 17 17 16
14 14 13 14 14 12 23 21 20 11 11 9 9 9 8 6 7 5 11 10 9 8 6 4 3 1 1 1 0 3 3 3 3 6 3 5 2 6 8 10 18 16 16
14 13 12 13 14 11 22 22 21 12 10 9 8 8 8 5 5 6 7 6 7 6 5 3 3 2 2 2 2 2 1 4 5 4 1 4 3 6 9 9 16 15 21
11 11 12 14 13 12 22 21 15 12 10 8 7 7 6 5 8 11 7 8 6 4 5 7 7 9 8 5 5 3 3 3 4 2 1 2 3 7 5 5 5 15 22
12 10 11 11 17 13 19 20 15 9 10 8 7 7 11 7 10 10 6 6 5 2 4 4 4 5 7 7 8 3 3 0 3 3 2 6 3 5 6 3 6 7 7
Wind_Direction
169 161 175 166 176 137 127 108 118 139 129 118 106 118 114 106 104 91 98 108 111 128 135 129 127 114 108 101 95 87 79 72 66 56 48 42 36 29 25 19 13 7 2
159 171 167 166 164 137 133 127 141 142 136 130 109 107 107 92 91 91 82 94 123 131 131 135 123 122 112 103 93 83 73 65 59 52 43 36 30 24 19 14 7 1 355
156 163 169 162 160 145 132 110 114 106 104 106 111 103 103 94 88 82 86 76 87 99 111 119 122 113 114 103 92 81 71 63 54 44 36 31 24 19 13 5 358 353 351
161 163 165 163 150 138 130 118 132 107 113 120 114 102 91 97 95 101 92 85 75 58 64 98 112 120 103 96 88 77 65 55 48 43 33 25 17 9 2 360 355 350 347
170 166 156 154 142 136 129 127 111 138 134 117 114 95 86 104 112 100 102 97 88 82 70 76 79 90 92 89 81 71 63 53 43 36 29 18 7 359 355 349 351 350 344
172 167 140 163 132 136 133 119 127 86 141 133 112 76 44 59 88 96 102 100 97 92 88 78 57 78 99 90 71 57 46 35 30 23 12 8 358 347 344 346 347 343 340
179 151 147 178 143 156 133 125 110 131 86 128 101 67 50 47 51 65 105 112 108 109 112 107 94 64 74 82 68 51 35 22 16 8 2 358 348 343 342 346 344 342 336
171 159 154 183 173 143 134 145 150 124 96 169 136 111 114 38 42 81 76 129 139 135 129 121 108 96 89 83 73 54 29 11 6 2 352 349 340 340 348 344 336 339 330
177 173 165 190 191 148 147 162 161 164 159 308 159 133 142 192 121 27 155 158 155 144 136 132 124 121 114 90 69 34 27 14 356 353 346 341 339 347 344 337 330 334 331
173 165 172 178 171 160 158 176 171 172 157 161 72 50 80 138 159 149 347 166 153 163 157 151 136 130 121 111 79 47 23 3 356 346 343 334 339 352 343 333 327 326 327
175 168 161 167 169 160 157 173 187 160 176 157 158 142 84 58 80 136 163 160 74 131 154 152 146 134 135 122 97 34 16 2 353 346 341 335 345 349 343 332 325 326 326
177 172 170 170 169 171 168 166 171 157 130 124 137 130 137 159 165 143 114 129 147 142 122 125 124 128 116 73 98 38 11 5 349 344 341 343 345 343 336 323 324 328 330
184 188 172 169 175 174 174 164 168 152 149 150 150 135 108 116 132 127 116 137 136 138 114 64 96 121 104 63 56 51 13 355 354 348 348 338 340 333 326 323 326 328 326
180 183 185 175 167 171 164 170 169 161 159 135 131 146 122 146 168 166 143 144 111 122 92 146 118 125 124 145 61 55 2 352 353 350 340 331 333 327 329 329 328 327 325
171 172 178 171 153 157 159 149 141 129 124 121 128 120 109 91 86 99 102 121 135 140 168 163 140 112 91 25 75 39 8 355 352 344 335 327 327 322 336 329 330 325 322
165 155 149 145 135 142 145 133 124 117 120 109 115 113 97 80 71 77 93 86 80 120 133 165 120 121 28 72 46 36 2 2 350 341 334 319 316 338 336 332 328 325 320
163 155 148 141 135 126 121 118 128 131 124 123 121 113 99 95 84 75 74 68 64 74 105 86 85 85 74 52 26 6 351 344 347 328 328 342 355 338 330 328 327 327 323
147 143 138 127 124 118 122 126 127 125 129 125 114 104 108 102 76 59 72 79 76 47 118 126 112 76 73 35 312 342 346 335 310 319 353 1 345 337 328 327 329 327 322
130 124 122 122 117 117 115 124 123 117 117 114 113 107 114 110 103 95 87 84 65 61 59 106 106 60 106 19 348 346 297 287 329 345 8 350 343 338 334 330 330 327 319
128 126 117 105 112 119 115 113 118 108 101 96 97 104 104 98 116 117 89 94 95 84 82 91 92 112 69 15 309 297 327 329 329 351 343 341 337 335 335 333 331 322 314
113 115 111 113 111 103 119 123 113 110 108 98 93 94 89 109 106 106 113 111 105 94 91 93 79 62 53 358 2 318 307 323 314 285 304 307 318 316 310 319 312 312 318
115 107 103 111 118 111 124 120 118 114 110 109 106 105 110 98 116 114 109 105 114 121 97 110 133 136 153 152 310 335 321 347 342 302 335 322 313 314 306 305 318 323 320
110 114 121 125 112 127 129 123 117 109 104 109 117 108 102 98 87 101 120 95 99 113 108 122 125 140 201 177 52 324 340 330 279 305 324 300 323 314 313 317 324 328 327
123 127 126 121 118 127 131 126 118 120 111 96 102 101 107 114 144 118 103 100 78 72 90 94 106 177 213 132 97 45 317 291 281 263 276 276 302 306 315 309 318 325 330
119 126 126 122 122 123 132 132 123 92 104 113 118 119 122 121 139 141 119 104 95 58 58 81 86 68 55 52 66 43 1 5 322 280 196 308 313 309 296 290 301 317 323
119 119 115 115 126 126 131 120 110 123 127 123 126 129 132 134 132 129 114 124 126 122 97 72 52 56 52 28 22 19 328 254 298 323 291 337 322 352 315 275 309 305 304